Regional Weather Roundup
Issued by NWS

Current Version | Previous Version | Text Only | Print | Product List | Glossary On
Versions: 1 2 3 4 5 6 7 8 9 10 11 12 13 14 15 16 17 18 19 20 21 22 23 24 25 26 27 28
000
ASUS44 KJAN 011310
RWRMS

MISSISSIPPI HOURLY WEATHER ROUNDUP
NATIONAL WEATHER SERVICE JACKSON MS
700 AM CST FRI MAR 01 2024

NOTE: "FAIR: INDICATES FEW OR NO CLOUDS BELOW 12,000 FEET WITH NO
SIGNIFICANT WEATHER AND/OR OBSTRUCTIONS TO VISIBILITY.

MSZ001>002-007>008-010>013-018>021-025>028-034>036-011400-
NORTHWEST MISSISSIPPI

CITY           SKY/WX    TMP DP  RH WIND       PRES   REMARKS
BATESVILLE     CLOUDY    41  39  93 CALM      30.18R
CLARKSDALE       N/A     41 N/A N/A CALM      30.19R
GREENWOOD      CLOUDY    44  41  89 CALM      30.17R
GREENVILLE     CLOUDY    44  40  85 CALM      30.18R
OLIVE BRANCH   CLOUDY    43  37  81 SE3       30.17R
OXFORD         CLOUDY    39  39 100 E5        30.19R
TUNICA         LGT RAIN  41  41  98 S3        30.19R FOG
WINONA         CLOUDY    41  40  98 CALM      30.16F
$$

MSZ003>006-009-014>017-022>024-029>033-037>039-011400-
NORTHEAST MISSISSIPPI

CITY           SKY/WX    TMP DP  RH WIND       PRES   REMARKS
ABERDEEN       LGT RAIN  43  43 100 CALM      30.21S
COLUMBUS AFB   LGT RAIN  45  43  94 CALM      30.16F
GOLDN TRIANGLE HVY RAIN  45  45 100 E3        30.20R FOG
IUKA           LGT RAIN  40  40 100 NE5       30.19S
LOUISVILLE     LGT RAIN  43  43 100 NW7       30.22R FOG
STARKVILLE     RAIN      43  43 100 CALM      30.18R FOG
TUPELO         LGT RAIN  43  40  89 CALM      30.20R
$$

MSZ040-058-011400-
CENTRAL MISSISSIPPI

CITY           SKY/WX    TMP DP  RH WIND       PRES   REMARKS
JACKSON INTL   LGT RAIN  44  42  93 N5        30.16R FOG
JACKSON HAWKNS HVY RAIN  42  40  92 N3        30.17S FOG
MADISON        RAIN      43  43 100 CALM      30.16S
MERIDIAN KEY   HVY RAIN  45  43  93 NE7       30.17R FOG
MERIDIAN NAS   RAIN      46  42  86 NE5       30.18S FOG
PRESTON        LGT RAIN  43  39  86 N3        30.21R
RAYMOND        HVY RAIN  43  43 100 CALM      30.18R VSB 1
VICKSBURG VKS    N/A     45  41  87 NE6       30.16R
$$

MSZ059>079-011400-
SOUTH MISSISSIPPI

CITY           SKY/WX    TMP DP  RH WIND       PRES   REMARKS
HATTIESBURG    HVY RAIN  50  48  93 SE17G23   30.11F VSB 3/4
LAUREL         RAIN      46 N/A N/A N9        30.16R
MCCOMB         HVY RAIN  43  43 100 NE5       30.12S VSB 3/4
NATCHEZ        CLOUDY    45  40  82 NE3       30.16R
PINE BELT      RAIN      47  47 100 N6        30.15R
$$

MSZ080>082-011400-
COASTAL MISSISSIPPI

CITY           SKY/WX    TMP DP  RH WIND       PRES   REMARKS
BILOXI         LGT RAIN  62  60  93 SE15G22   30.09R
GULFPORT       CLOUDY    62  60  93 SE18      30.10R
PASCAGOULA     HVY RAIN  61  59  93 SE14G24   30.12S FOG
$$

LAZ007>009-015>016-023>026-011400-
NORTHEAST LOUISIANA

CITY           SKY/WX    TMP DP  RH WIND       PRES   REMARKS
BASTROP        CLOUDY    42  41  97 CALM      30.17R
TALLULAH/VBURG CLOUDY    44  41  89 NE7       30.17S
VIDALIA        CLOUDY    48  38  70 N7        30.19R
$$



USA.gov is the U.S. government's official web portal to all federal, state and local government web resources and services.